Weather History for KLOZ - December, 2012

Change the Weather History Date:

Sunday, December 9, 2012

  Actual Average Record
Temperature  
Mean Temperature 57 °F 40 °F  
Max Temperature 61 °F 49 °F 68 °F (2007)
Min Temperature 53 °F 31 °F 10 °F (1976)
Degree Days  
Heating Degree Days 8 25  
Month to date heating degree days 99 216  
Since 1 July heating degree days 1153 1046  
Cooling Degree Days 0 0  
Month to date cooling degree days 0 0  
Year to date cooling degree days 1226 1190  
Growing Degree Days 7 (Base 50)    
Moisture  
Dew Point 55 °F    
Average Humidity 89    
Maximum Humidity 100    
Minimum Humidity 78    
Precipitation  
Precipitation 1.23 in 0.16 in 1.81 in (1961)
Month to date precipitation 1.70 1.31  
Year to date precipitation 41.82 44.21  
Sea Level Pressure  
Sea Level Pressure 29.96 in    
Wind  
Wind Speed 4 mph (South)    
Max Wind Speed 10 mph    
Max Gust Speed 15 mph    
Visibility 4 miles    
Events Fog , Rain , Thunderstorm    
T = Trace of Precipitation, MM = Missing Value Source: NWS Daily Summary

Daily Weather History Graph

Daily Weather History Graph

Search for Another Location

Airport or City:

Trip Planner

Search our weather history database for the weather conditions in past years. The results will help you decide how hot, cold, wet, or windy it might be!

Date:

Astronomy

Dec. 09, 2012 Rise Set
Actual Time 7:38 AM EST 5:19 PM EST
Civil Twilight 7:09 AM EST 5:48 PM EST
Nautical Twilight 6:37 AM EST 6:20 PM EST
Astronomical Twilight 6:05 AM EST 6:52 PM EST
Moon 3:14 AM EST (12/9) 2:21 PM EST (12/9)
Length of Visible Light 10h 38m
Length of Day
9h 40m
Waning Crescent, 19% of the Moon is Illuminated
Dec 9
Waning Crescent
Dec 13
New
Dec 20
First Quarter
Dec 28
Full
Jan 4
Last Quarter

Hourly Weather History & Observations

Time (EST) Temp. Dew Point Humidity Pressure Visibility Wind Dir Wind Speed Gust Speed Precip Events Conditions
12:10 AM 53.6 °F 53.6 °F 100% 29.99 in 0.8 mi Calm Calm - 0.00 in   Overcast
12:53 AM 54.0 °F 53.1 °F 97% 29.99 in 0.5 mi Calm Calm - 0.01 in Fog , Rain Light Rain
1:19 AM 53.6 °F 53.6 °F 100% 29.99 in 0.5 mi NNE 4.6 mph - 0.04 in Fog , Rain Light Rain
1:26 AM 53.6 °F 53.6 °F 100% 29.99 in 1.0 mi Calm Calm - 0.05 in Rain Light Rain
1:34 AM 55.4 °F 53.6 °F 94% 30.00 in 2.0 mi Calm Calm - 0.06 in Rain Light Rain
1:47 AM 55.4 °F 55.4 °F 100% 30.00 in 3.0 mi Calm Calm - 0.08 in Rain Light Rain
1:53 AM 55.0 °F 55.0 °F 100% 29.98 in 4.0 mi Calm Calm - 0.08 in   Overcast
2:05 AM 55.4 °F 55.4 °F 100% 30.00 in 3.0 mi Calm Calm - 0.00 in Rain Light Rain
2:24 AM 55.4 °F 53.6 °F 94% 30.01 in 5.0 mi South 5.8 mph - 0.01 in   Overcast
2:36 AM 55.4 °F 53.6 °F 94% 30.01 in 9.0 mi SSW 4.6 mph - 0.01 in   Overcast
2:53 AM 55.9 °F 54.0 °F 93% 29.99 in 10.0 mi South 3.5 mph - 0.01 in Rain Light Rain
3:32 AM 55.4 °F 53.6 °F 94% 29.99 in 7.0 mi Calm Calm - 0.00 in   Overcast
3:53 AM 55.0 °F 54.0 °F 96% 29.98 in 5.0 mi SSE 3.5 mph - 0.00 in   Mostly Cloudy
4:07 AM 53.6 °F 53.6 °F 100% 29.99 in 2.5 mi Calm Calm - N/A   Mostly Cloudy
4:24 AM 53.6 °F 53.6 °F 100% 29.99 in 0.8 mi Calm Calm - N/A   Mostly Cloudy
4:53 AM 53.1 °F 53.1 °F 100% 29.98 in 0.8 mi Calm Calm - N/A   Overcast
5:02 AM 55.4 °F 53.6 °F 94% 29.99 in 1.8 mi ESE 3.5 mph - 0.05 in Rain Heavy Rain
5:09 AM 53.6 °F 53.6 °F 100% 29.99 in 2.0 mi Calm Calm - 0.07 in Rain Light Rain
5:26 AM 55.4 °F 53.6 °F 94% 29.99 in 4.0 mi Calm Calm - 0.08 in Rain Light Rain
5:53 AM 55.0 °F 54.0 °F 96% 29.98 in 5.0 mi Calm Calm - 0.09 in   Overcast
6:06 AM 55.4 °F 53.6 °F 94% 29.99 in 4.0 mi Calm Calm - N/A   Overcast
6:12 AM 53.6 °F 53.6 °F 100% 29.99 in 1.8 mi Calm Calm - N/A   Overcast
6:30 AM 53.6 °F 53.6 °F 100% 30.00 in 2.5 mi Calm Calm - N/A   Overcast
6:37 AM 53.6 °F 53.6 °F 100% 30.00 in 4.0 mi Calm Calm - N/A   Mostly Cloudy
6:53 AM 54.0 °F 54.0 °F 100% 29.99 in 2.0 mi Calm Calm - N/A   Overcast
7:05 AM 53.6 °F 53.6 °F 100% 30.00 in 3.0 mi Calm Calm - N/A   Overcast
7:53 AM 55.0 °F 54.0 °F 96% 29.99 in 6.0 mi Calm Calm - N/A   Mostly Cloudy
8:53 AM 57.0 °F 55.0 °F 93% 29.98 in 10.0 mi SSE 3.5 mph - 0.00 in   Overcast
9:53 AM 57.9 °F 55.9 °F 93% 29.99 in 9.0 mi SSE 3.5 mph - 0.01 in Rain Light Rain
10:53 AM 57.9 °F 55.9 °F 93% 29.98 in 10.0 mi South 3.5 mph - 0.01 in Rain Light Rain
11:03 AM 57.2 °F 55.4 °F 94% 29.98 in 10.0 mi Calm Calm - 0.00 in Rain , Thunderstorm Light Rain
11:18 AM 57.2 °F 55.4 °F 94% 29.99 in 9.0 mi WNW 5.8 mph - 0.00 in Rain Light Rain
11:33 AM 57.2 °F 55.4 °F 94% 30.00 in 2.5 mi NW 5.8 mph - 0.05 in Rain Heavy Rain
11:41 AM 57.2 °F 57.2 °F 100% 29.99 in 0.8 mi NW 4.6 mph - 0.13 in Rain Heavy Rain
11:46 AM 57.2 °F 57.2 °F 100% 29.99 in 1.0 mi NW 3.5 mph - 0.15 in Rain Rain
11:53 AM 57.0 °F 57.0 °F 100% 29.98 in 1.2 mi NNW 4.6 mph - 0.20 in Rain Heavy Rain
12:09 PM 57.2 °F 55.4 °F 94% 29.97 in 3.0 mi North 4.6 mph - 0.05 in Rain , Thunderstorm Light Rain
12:25 PM 57.2 °F 55.4 °F 94% 29.96 in 1.8 mi North 4.6 mph - 0.11 in Rain , Thunderstorm Rain
12:27 PM 57.2 °F 55.4 °F 94% 29.97 in 1.8 mi NNE 4.6 mph - 0.11 in Rain Rain
12:35 PM 57.2 °F 57.2 °F 100% 29.96 in 2.0 mi North 4.6 mph - 0.15 in Rain Heavy Rain
12:41 PM 57.2 °F 57.2 °F 100% 29.97 in 1.5 mi North 5.8 mph - 0.19 in Rain Heavy Rain
12:47 PM 57.2 °F 55.4 °F 94% 29.96 in 1.2 mi NNW 4.6 mph - 0.22 in Rain Heavy Rain
12:53 PM 57.0 °F 55.9 °F 96% 29.96 in 1.0 mi WNW 5.8 mph - 0.28 in Rain Heavy Rain
1:01 PM 57.2 °F 57.2 °F 100% 29.96 in 1.0 mi Calm Calm - 0.07 in Rain Heavy Rain
1:17 PM 57.2 °F 55.4 °F 94% 29.96 in 0.5 mi SW 6.9 mph - 0.30 in Fog , Rain Heavy Rain
1:24 PM 57.2 °F 55.4 °F 94% 29.95 in 2.0 mi SW 6.9 mph - 0.32 in Rain Light Rain
1:26 PM 57.2 °F 55.4 °F 94% 29.95 in 3.0 mi SW 8.1 mph - 0.32 in Rain Light Rain
1:53 PM 57.9 °F 57.0 °F 97% 29.93 in 10.0 mi SSE 4.6 mph - 0.32 in Rain Light Rain
2:09 PM 57.2 °F 57.2 °F 100% 29.94 in 6.0 mi Calm Calm - 0.01 in Rain Light Rain
2:34 PM 57.2 °F 57.2 °F 100% 29.94 in 2.5 mi Calm Calm - 0.05 in Rain Rain
2:48 PM 57.2 °F 57.2 °F 100% 29.94 in 4.0 mi SE 3.5 mph - 0.08 in Rain Light Rain
2:53 PM 57.9 °F 57.0 °F 97% 29.93 in 3.0 mi Calm Calm - 0.08 in Rain Rain
3:16 PM 57.2 °F 57.2 °F 100% 29.94 in 1.8 mi South 3.5 mph - 0.07 in Rain Rain
3:32 PM 57.2 °F 57.2 °F 100% 29.93 in 2.0 mi Calm Calm - 0.14 in Rain Light Rain
3:41 PM 57.2 °F 57.2 °F 100% 29.93 in 6.0 mi SSE 5.8 mph - 0.14 in Rain Light Rain
3:53 PM 59.0 °F 57.9 °F 96% 29.91 in 7.0 mi SSE 5.8 mph - 0.14 in   Mostly Cloudy
4:53 PM 60.1 °F 57.0 °F 90% 29.91 in 10.0 mi South 5.8 mph - N/A   Overcast
5:53 PM 60.1 °F 57.0 °F 90% 29.90 in 10.0 mi South 5.8 mph - N/A   Mostly Cloudy
6:53 PM 60.1 °F 55.0 °F 83% 29.89 in 10.0 mi South 5.8 mph - N/A   Mostly Cloudy
7:53 PM 59.0 °F 55.0 °F 87% 29.86 in 10.0 mi South 5.8 mph - N/A   Partly Cloudy
8:53 PM 60.1 °F 55.0 °F 83% 29.84 in 10.0 mi South 5.8 mph - N/A   Clear
9:53 PM 61.0 °F 54.0 °F 78% 29.83 in 10.0 mi South 6.9 mph - N/A   Clear
10:53 PM 61.0 °F 54.0 °F 78% 29.81 in 10.0 mi South 9.2 mph - N/A   Clear
11:53 PM 60.1 °F 53.1 °F 78% 29.81 in 10.0 mi South 6.9 mph - N/A   Clear